Time,TemperatureF,DewpointF,PressureIn,WindDirection,WindDirectionDegrees,WindSpeedMPH,WindSpeedGustMPH,Humidity,HourlyPrecipIn,Conditions,Clouds,dailyrainin,SolarRadiationWatts/m^2,SoftwareType,DateUTC
2013-01-12 00:00:00,60.8,60.2,30.14,SE,133,0.0,0.0,98,0.04,,,0.27,0,Wunderground v.1.15,2013-01-12 05:00:00,
2013-01-12 00:01:00,60.8,60.2,30.14,SE,133,0.0,0.0,98,0.04,,,0.00,0,Wunderground v.1.15,2013-01-12 05:01:00,
2013-01-12 00:03:00,60.7,60.1,30.14,SE,133,0.0,0.0,98,0.04,,,0.01,0,Wunderground v.1.15,2013-01-12 05:03:00,
2013-01-12 00:06:00,60.7,60.1,30.14,SE,133,0.0,0.0,98,0.04,,,0.01,0,Wunderground v.1.15,2013-01-12 05:06:00,
2013-01-12 00:12:00,60.6,60.0,30.14,SE,133,0.0,0.0,98,0.04,,,0.01,0,Wunderground v.1.15,2013-01-12 05:12:00,
2013-01-12 00:18:00,60.7,60.1,30.14,SE,133,0.0,0.0,98,0.04,,,0.01,0,Wunderground v.1.15,2013-01-12 05:18:00,
2013-01-12 00:24:00,60.7,60.1,30.14,SE,133,0.0,0.0,98,0.00,,,0.01,0,Wunderground v.1.15,2013-01-12 05:24:00,
2013-01-12 00:30:00,60.7,60.1,30.14,SE,133,0.0,0.0,98,0.00,,,0.02,0,Wunderground v.1.15,2013-01-12 05:30:00,
2013-01-12 00:35:00,60.8,60.2,30.14,SSE,158,2.0,2.0,98,0.00,,,0.02,0,Wunderground v.1.15,2013-01-12 05:35:00,
2013-01-12 00:41:00,61.4,60.8,30.14,South,180,0.0,2.0,98,0.00,,,0.02,0,Wunderground v.1.15,2013-01-12 05:41:00,
2013-01-12 00:47:00,61.8,61.5,30.14,SSW,194,1.0,2.0,99,0.00,,,0.02,0,Wunderground v.1.15,2013-01-12 05:47:00,
2013-01-12 00:53:00,61.9,61.6,30.13,South,175,1.0,1.0,99,0.00,,,0.02,0,Wunderground v.1.15,2013-01-12 05:53:00,
2013-01-12 00:59:00,62.0,61.7,30.13,South,175,0.0,2.0,99,0.00,,,0.03,0,Wunderground v.1.15,2013-01-12 05:59:00,
2013-01-12 01:05:00,62.0,61.7,30.13,SSW,197,1.0,4.0,99,0.00,,,0.03,0,Wunderground v.1.15,2013-01-12 06:05:00,
2013-01-12 01:10:00,62.1,61.8,30.14,SSW,210,2.0,2.0,99,0.00,,,0.03,0,Wunderground v.1.15,2013-01-12 06:10:00,
2013-01-12 01:16:00,62.2,61.9,30.13,SW,230,0.0,2.0,99,0.00,,,0.03,0,Wunderground v.1.15,2013-01-12 06:16:00,
2013-01-12 01:21:00,62.3,62.0,30.13,SSW,202,0.0,1.0,99,0.00,,,0.03,0,Wunderground v.1.15,2013-01-12 06:21:00,
2013-01-12 01:27:00,62.3,62.0,30.13,SSW,209,0.0,3.0,99,0.00,,,0.03,0,Wunderground v.1.15,2013-01-12 06:27:00,
2013-01-12 01:32:00,62.3,62.0,30.13,SSW,209,0.0,0.0,99,0.00,,,0.03,0,Wunderground v.1.15,2013-01-12 06:32:00,
2013-01-12 01:38:00,62.3,62.0,30.13,SSW,209,0.0,0.0,99,0.00,,,0.03,0,Wunderground v.1.15,2013-01-12 06:38:00,
2013-01-12 01:43:00,62.2,61.6,30.14,SSW,209,0.0,0.0,98,0.00,,,0.03,0,Wunderground v.1.15,2013-01-12 06:43:00,
2013-01-12 01:49:00,62.1,61.5,30.14,SSW,209,0.0,1.0,98,0.00,,,0.03,0,Wunderground v.1.15,2013-01-12 06:49:00,
2013-01-12 01:55:00,62.1,61.5,30.14,SSW,209,0.0,0.0,98,0.00,,,0.03,0,Wunderground v.1.15,2013-01-12 06:55:00,
2013-01-12 02:00:00,61.9,61.3,30.14,SSW,209,0.0,0.0,98,0.00,,,0.03,0,Wunderground v.1.15,2013-01-12 07:00:00,
2013-01-12 02:05:00,61.7,61.1,30.14,SSW,209,0.0,0.0,98,0.00,,,0.03,0,Wunderground v.1.15,2013-01-12 07:05:00,
2013-01-12 02:10:00,61.6,61.0,30.14,SSW,209,0.0,0.0,98,0.00,,,0.03,0,Wunderground v.1.15,2013-01-12 07:10:00,
2013-01-12 02:15:00,61.5,60.9,30.14,SSW,209,0.0,0.0,98,0.00,,,0.03,0,Wunderground v.1.15,2013-01-12 07:15:00,
2013-01-12 02:20:00,61.4,60.8,30.14,SSW,209,0.0,0.0,98,0.00,,,0.03,0,Wunderground v.1.15,2013-01-12 07:20:00,
2013-01-12 02:25:00,61.5,60.9,30.15,SSW,209,0.0,0.0,98,0.00,,,0.03,0,Wunderground v.1.15,2013-01-12 07:25:00,
2013-01-12 02:30:00,61.5,60.9,30.14,SSW,209,0.0,0.0,98,0.00,,,0.03,0,Wunderground v.1.15,2013-01-12 07:30:00,
2013-01-12 02:35:00,61.4,60.8,30.15,SSW,209,0.0,0.0,98,0.00,,,0.03,0,Wunderground v.1.15,2013-01-12 07:35:00,
2013-01-12 02:40:00,61.3,60.7,30.14,SSW,209,1.0,1.0,98,0.00,,,0.03,0,Wunderground v.1.15,2013-01-12 07:40:00,
2013-01-12 02:45:00,61.1,60.5,30.15,SSW,209,0.0,1.0,98,0.00,,,0.03,0,Wunderground v.1.15,2013-01-12 07:45:00,
2013-01-12 02:50:00,61.1,60.5,30.14,SSW,209,0.0,0.0,98,0.00,,,0.03,0,Wunderground v.1.15,2013-01-12 07:50:00,
2013-01-12 02:55:00,61.0,60.4,30.15,SSW,209,0.0,1.0,98,0.00,,,0.03,0,Wunderground v.1.15,2013-01-12 07:55:00,
2013-01-12 03:00:00,61.0,60.4,30.15,ESE,115,1.0,1.0,98,0.00,,,0.03,0,Wunderground v.1.15,2013-01-12 08:00:00,
2013-01-12 03:05:00,61.0,60.4,30.14,ESE,109,4.0,4.0,98,0.00,,,0.03,0,Wunderground v.1.15,2013-01-12 08:05:00,
2013-01-12 03:10:00,60.9,60.3,30.14,ESE,109,0.0,2.0,98,0.00,,,0.03,0,Wunderground v.1.15,2013-01-12 08:10:00,
2013-01-12 03:15:00,60.8,60.2,30.15,ESE,109,0.0,2.0,98,0.00,,,0.03,0,Wunderground v.1.15,2013-01-12 08:15:00,
2013-01-12 03:21:00,60.5,59.9,30.15,ESE,109,0.0,0.0,98,0.00,,,0.03,0,Wunderground v.1.15,2013-01-12 08:21:00,
2013-01-12 03:26:00,60.4,59.8,30.15,ESE,109,0.0,0.0,98,0.00,,,0.03,0,Wunderground v.1.15,2013-01-12 08:26:00,
2013-01-12 03:31:00,60.3,59.7,30.14,ESE,109,0.0,0.0,98,0.00,,,0.03,0,Wunderground v.1.15,2013-01-12 08:31:00,
2013-01-12 03:36:00,60.4,59.8,30.14,ESE,109,0.0,0.0,98,0.00,,,0.03,0,Wunderground v.1.15,2013-01-12 08:36:00,
2013-01-12 03:41:00,60.3,59.7,30.14,ESE,109,0.0,1.0,98,0.00,,,0.03,0,Wunderground v.1.15,2013-01-12 08:41:00,
2013-01-12 03:46:00,60.2,59.6,30.14,ESE,109,0.0,1.0,98,0.00,,,0.03,0,Wunderground v.1.15,2013-01-12 08:46:00,
2013-01-12 03:51:00,60.3,59.7,30.14,ESE,109,0.0,0.0,98,0.00,,,0.03,0,Wunderground v.1.15,2013-01-12 08:51:00,
2013-01-12 03:56:00,60.1,59.5,30.14,ESE,109,0.0,0.0,98,0.00,,,0.03,0,Wunderground v.1.15,2013-01-12 08:56:00,
2013-01-12 04:01:00,60.1,59.5,30.15,ESE,109,0.0,0.0,98,0.00,,,0.03,0,Wunderground v.1.15,2013-01-12 09:01:00,
2013-01-12 04:06:00,60.2,59.6,30.14,ESE,109,0.0,0.0,98,0.00,,,0.03,0,Wunderground v.1.15,2013-01-12 09:06:00,
2013-01-12 04:11:00,60.4,59.8,30.14,ESE,109,0.0,1.0,98,0.00,,,0.03,0,Wunderground v.1.15,2013-01-12 09:11:00,
2013-01-12 04:16:00,60.2,59.6,30.14,ESE,109,0.0,1.0,98,0.00,,,0.03,0,Wunderground v.1.15,2013-01-12 09:16:00,
2013-01-12 04:21:00,60.2,59.6,30.14,ESE,109,0.0,0.0,98,0.00,,,0.03,0,Wunderground v.1.15,2013-01-12 09:21:00,
2013-01-12 04:26:00,60.1,59.5,30.14,ESE,109,0.0,0.0,98,0.00,,,0.03,0,Wunderground v.1.15,2013-01-12 09:26:00,
2013-01-12 04:31:00,60.1,59.5,30.14,ESE,109,0.0,0.0,98,0.00,,,0.03,0,Wunderground v.1.15,2013-01-12 09:31:00,
2013-01-12 04:36:00,60.1,59.5,30.14,ESE,109,0.0,0.0,98,0.00,,,0.03,0,Wunderground v.1.15,2013-01-12 09:36:00,
2013-01-12 04:41:00,59.9,59.3,30.13,ESE,109,0.0,0.0,98,0.00,,,0.03,0,Wunderground v.1.15,2013-01-12 09:41:00,
2013-01-12 04:46:00,59.8,59.2,30.13,ESE,109,0.0,0.0,98,0.00,,,0.03,0,Wunderground v.1.15,2013-01-12 09:46:00,
2013-01-12 04:51:00,59.8,59.2,30.13,ESE,109,0.0,1.0,98,0.00,,,0.03,0,Wunderground v.1.15,2013-01-12 09:51:00,
2013-01-12 04:56:00,59.8,59.2,30.13,ESE,109,0.0,1.0,98,0.00,,,0.03,0,Wunderground v.1.15,2013-01-12 09:56:00,
2013-01-12 05:01:00,59.8,59.2,30.13,ESE,109,0.0,0.0,98,0.00,,,0.03,0,Wunderground v.1.15,2013-01-12 10:01:00,
2013-01-12 05:06:00,59.8,59.2,30.13,ESE,109,0.0,0.0,98,0.00,,,0.03,0,Wunderground v.1.15,2013-01-12 10:06:00,
2013-01-12 05:11:00,59.7,59.1,30.12,ESE,109,0.0,0.0,98,0.00,,,0.03,0,Wunderground v.1.15,2013-01-12 10:11:00,
2013-01-12 05:16:00,59.7,59.1,30.12,ESE,109,0.0,0.0,98,0.00,,,0.03,0,Wunderground v.1.15,2013-01-12 10:16:00,
2013-01-12 05:21:00,59.7,59.1,30.12,ESE,109,0.0,0.0,98,0.00,,,0.03,0,Wunderground v.1.15,2013-01-12 10:21:00,
2013-01-12 05:26:00,59.6,59.0,30.12,ESE,109,0.0,0.0,98,0.00,,,0.03,0,Wunderground v.1.15,2013-01-12 10:26:00,
2013-01-12 05:31:00,59.6,59.0,30.12,ESE,109,0.0,0.0,98,0.00,,,0.03,0,Wunderground v.1.15,2013-01-12 10:31:00,
2013-01-12 05:36:00,59.6,59.0,30.12,ESE,109,0.0,0.0,98,0.00,,,0.03,0,Wunderground v.1.15,2013-01-12 10:36:00,
2013-01-12 05:41:00,59.6,59.0,30.12,ESE,109,0.0,1.0,98,0.00,,,0.03,0,Wunderground v.1.15,2013-01-12 10:41:00,
2013-01-12 05:46:00,59.5,58.9,30.12,ESE,109,0.0,1.0,98,0.00,,,0.03,0,Wunderground v.1.15,2013-01-12 10:46:00,
2013-01-12 05:51:00,59.5,58.9,30.12,ESE,111,2.0,2.0,98,0.00,,,0.03,0,Wunderground v.1.15,2013-01-12 10:51:00,
2013-01-12 05:56:00,59.8,59.5,30.12,SE,134,5.0,5.0,99,0.00,,,0.03,0,Wunderground v.1.15,2013-01-12 10:56:00,
2013-01-12 06:01:00,60.0,59.7,30.12,SSE,154,5.0,5.0,99,0.00,,,0.03,0,Wunderground v.1.15,2013-01-12 11:01:00,
2013-01-12 06:06:00,59.9,59.6,30.12,SSE,162,0.0,5.0,99,0.00,,,0.03,0,Wunderground v.1.15,2013-01-12 11:06:00,
2013-01-12 06:11:00,59.8,59.5,30.12,SE,140,0.0,2.0,99,0.00,,,0.03,0,Wunderground v.1.15,2013-01-12 11:11:00,
2013-01-12 06:16:00,60.0,59.7,30.12,SSE,148,4.0,5.0,99,0.00,,,0.03,0,Wunderground v.1.15,2013-01-12 11:16:00,
2013-01-12 06:21:00,60.1,59.8,30.13,SE,143,6.0,6.0,99,0.00,,,0.03,0,Wunderground v.1.15,2013-01-12 11:21:00,
2013-01-12 06:26:00,60.3,60.0,30.13,SSE,166,2.0,6.0,99,0.00,,,0.03,0,Wunderground v.1.15,2013-01-12 11:26:00,
2013-01-12 06:31:00,60.4,60.1,30.13,South,191,0.0,3.0,99,0.00,,,0.03,0,Wunderground v.1.15,2013-01-12 11:31:00,
2013-01-12 06:36:00,60.1,59.8,30.13,South,191,0.0,3.0,99,0.00,,,0.03,0,Wunderground v.1.15,2013-01-12 11:36:00,
2013-01-12 06:41:00,60.1,59.8,30.13,South,191,0.0,0.0,99,0.00,,,0.03,0,Wunderground v.1.15,2013-01-12 11:41:00,
2013-01-12 06:47:00,60.0,59.7,30.14,South,191,0.0,0.0,99,0.00,,,0.03,0,Wunderground v.1.15,2013-01-12 11:47:00,
2013-01-12 06:52:00,59.9,59.6,30.14,South,191,0.0,0.0,99,0.00,,,0.03,0,Wunderground v.1.15,2013-01-12 11:52:00,
2013-01-12 06:57:00,59.8,59.5,30.15,South,191,0.0,0.0,99,0.00,,,0.03,0,Wunderground v.1.15,2013-01-12 11:57:00,
2013-01-12 07:02:00,59.8,59.5,30.15,South,191,0.0,0.0,99,0.00,,,0.03,0,Wunderground v.1.15,2013-01-12 12:02:00,
2013-01-12 07:07:00,59.8,59.5,30.15,South,191,0.0,0.0,99,0.00,,,0.03,0,Wunderground v.1.15,2013-01-12 12:07:00,
2013-01-12 07:12:00,59.6,59.0,30.15,South,191,0.0,0.0,98,0.00,,,0.03,0,Wunderground v.1.15,2013-01-12 12:12:00,
2013-01-12 07:17:00,59.6,59.0,30.15,South,191,0.0,1.0,98,0.00,,,0.03,0,Wunderground v.1.15,2013-01-12 12:17:00,
2013-01-12 07:22:00,59.5,58.9,30.15,SE,129,0.0,2.0,98,0.00,,,0.03,0,Wunderground v.1.15,2013-01-12 12:22:00,
2013-01-12 07:27:00,59.4,59.1,30.15,SE,129,0.0,2.0,99,0.00,,,0.03,0,Wunderground v.1.15,2013-01-12 12:27:00,
2013-01-12 07:32:00,59.3,59.0,30.15,SE,129,0.0,1.0,99,0.00,,,0.03,0,Wunderground v.1.15,2013-01-12 12:32:00,
2013-01-12 07:37:00,59.3,59.0,30.15,SE,129,0.0,1.0,99,0.00,,,0.03,0,Wunderground v.1.15,2013-01-12 12:37:00,
2013-01-12 07:42:00,59.4,59.1,30.15,SE,129,0.0,0.0,99,0.00,,,0.03,0,Wunderground v.1.15,2013-01-12 12:42:00,
2013-01-12 07:47:00,59.6,59.3,30.15,SE,129,0.0,0.0,99,0.00,,,0.03,0,Wunderground v.1.15,2013-01-12 12:47:00,
2013-01-12 07:52:00,59.6,59.3,30.15,SE,129,0.0,0.0,99,0.00,,,0.03,0,Wunderground v.1.15,2013-01-12 12:52:00,
2013-01-12 07:57:00,59.7,59.4,30.15,SE,129,0.0,0.0,99,0.00,,,0.03,0,Wunderground v.1.15,2013-01-12 12:57:00,
2013-01-12 08:02:00,59.8,59.5,30.15,SE,129,0.0,0.0,99,0.00,,,0.03,7,Wunderground v.1.15,2013-01-12 13:02:00,
2013-01-12 08:07:00,59.8,59.5,30.15,SE,129,0.0,0.0,99,0.00,,,0.03,9,Wunderground v.1.15,2013-01-12 13:07:00,
2013-01-12 08:12:00,59.8,59.5,30.16,SE,129,0.0,0.0,99,0.00,,,0.03,11,Wunderground v.1.15,2013-01-12 13:12:00,
2013-01-12 08:17:00,59.6,59.3,30.16,SE,129,0.0,0.0,99,0.00,,,0.03,16,Wunderground v.1.15,2013-01-12 13:17:00,
2013-01-12 08:22:00,59.4,59.1,30.15,SE,129,0.0,0.0,99,0.00,,,0.03,14,Wunderground v.1.15,2013-01-12 13:22:00,
2013-01-12 08:27:00,59.4,59.1,30.16,SE,129,0.0,2.0,99,0.00,,,0.03,14,Wunderground v.1.15,2013-01-12 13:27:00,
2013-01-12 08:32:00,59.4,59.1,30.16,SE,129,0.0,1.0,99,0.00,,,0.03,18,Wunderground v.1.15,2013-01-12 13:32:00,
2013-01-12 08:37:00,59.4,59.1,30.16,SE,129,0.0,1.0,99,0.00,,,0.03,25,Wunderground v.1.15,2013-01-12 13:37:00,
2013-01-12 08:42:00,59.4,59.1,30.16,SE,129,0.0,0.0,99,0.00,,,0.03,26,Wunderground v.1.15,2013-01-12 13:42:00,
2013-01-12 08:47:00,59.5,59.2,30.16,SE,129,0.0,0.0,99,0.00,,,0.03,26,Wunderground v.1.15,2013-01-12 13:47:00,
2013-01-12 08:52:00,59.6,59.3,30.17,SE,129,0.0,0.0,99,0.00,,,0.03,33,Wunderground v.1.15,2013-01-12 13:52:00,
2013-01-12 08:57:00,59.7,59.4,30.17,SE,129,0.0,0.0,99,0.00,,,0.03,35,Wunderground v.1.15,2013-01-12 13:57:00,
2013-01-12 09:02:00,59.7,59.4,30.17,SE,129,0.0,0.0,99,0.00,,,0.03,33,Wunderground v.1.15,2013-01-12 14:02:00,
2013-01-12 09:07:00,59.8,59.5,30.17,SE,129,0.0,0.0,99,0.00,,,0.03,28,Wunderground v.1.15,2013-01-12 14:07:00,
2013-01-12 09:12:00,59.8,59.5,30.17,SE,129,0.0,0.0,99,0.00,,,0.03,33,Wunderground v.1.15,2013-01-12 14:12:00,
2013-01-12 09:17:00,59.7,59.4,30.17,SE,129,0.0,0.0,99,0.00,,,0.03,39,Wunderground v.1.15,2013-01-12 14:17:00,
2013-01-12 09:22:00,59.9,59.6,30.17,SE,129,0.0,0.0,99,0.00,,,0.03,32,Wunderground v.1.15,2013-01-12 14:22:00,
2013-01-12 09:27:00,60.1,59.8,30.17,ESE,113,0.0,2.0,99,0.00,,,0.03,23,Wunderground v.1.15,2013-01-12 14:27:00,
2013-01-12 09:32:00,60.1,59.8,30.17,ESE,113,0.0,1.0,99,0.00,,,0.03,18,Wunderground v.1.15,2013-01-12 14:32:00,
2013-01-12 09:37:00,59.9,59.6,30.17,East,82,0.0,2.0,99,0.00,,,0.03,16,Wunderground v.1.15,2013-01-12 14:37:00,
2013-01-12 09:42:00,59.8,59.5,30.16,East,82,0.0,1.0,99,0.00,,,0.03,25,Wunderground v.1.15,2013-01-12 14:42:00,
2013-01-12 09:48:00,60.0,59.7,30.16,East,82,0.0,2.0,99,0.00,,,0.03,54,Wunderground v.1.15,2013-01-12 14:48:00,
2013-01-12 09:53:00,60.4,60.1,30.17,East,96,0.0,4.0,99,0.00,,,0.03,72,Wunderground v.1.15,2013-01-12 14:53:00,
2013-01-12 09:58:00,60.6,60.3,30.17,SE,142,0.0,4.0,99,0.00,,,0.03,67,Wunderground v.1.15,2013-01-12 14:58:00,
2013-01-12 10:03:00,60.7,60.4,30.17,WSW,238,2.0,4.0,99,0.00,,,0.03,46,Wunderground v.1.15,2013-01-12 15:03:00,
2013-01-12 10:08:00,60.5,60.2,30.18,WSW,238,0.0,4.0,99,0.00,,,0.03,49,Wunderground v.1.15,2013-01-12 15:08:00,
2013-01-12 10:13:00,60.6,60.3,30.17,WSW,238,0.0,2.0,99,0.00,,,0.03,51,Wunderground v.1.15,2013-01-12 15:13:00,
2013-01-12 10:18:00,60.6,60.3,30.17,WSW,238,0.0,2.0,99,0.00,,,0.03,60,Wunderground v.1.15,2013-01-12 15:18:00,
2013-01-12 10:23:00,60.8,60.5,30.17,South,184,2.0,2.0,99,0.00,,,0.03,84,Wunderground v.1.15,2013-01-12 15:23:00,
2013-01-12 10:28:00,61.0,60.7,30.17,SE,142,0.0,4.0,99,0.00,,,0.03,98,Wunderground v.1.15,2013-01-12 15:28:00,
2013-01-12 10:33:00,61.4,61.1,30.17,SE,136,2.0,2.0,99,0.00,,,0.03,111,Wunderground v.1.15,2013-01-12 15:33:00,
2013-01-12 10:38:00,61.7,61.4,30.17,SE,136,0.0,2.0,99,0.00,,,0.03,104,Wunderground v.1.15,2013-01-12 15:38:00,
2013-01-12 10:43:00,61.9,61.6,30.17,SE,136,2.0,4.0,99,0.00,,,0.03,113,Wunderground v.1.15,2013-01-12 15:43:00,
2013-01-12 10:48:00,61.8,61.5,30.17,SE,136,0.0,4.0,99,0.00,,,0.03,132,Wunderground v.1.15,2013-01-12 15:48:00,
2013-01-12 10:53:00,62.0,61.7,30.17,SE,136,0.0,1.0,99,0.00,,,0.03,105,Wunderground v.1.15,2013-01-12 15:53:00,
2013-01-12 10:58:00,62.3,62.0,30.17,SE,144,0.0,4.0,99,0.00,,,0.03,91,Wunderground v.1.15,2013-01-12 15:58:00,
2013-01-12 11:03:00,62.5,62.2,30.16,ESE,109,0.0,4.0,99,0.00,,,0.03,120,Wunderground v.1.15,2013-01-12 16:03:00,
2013-01-12 11:08:00,62.6,62.3,30.16,ESE,109,0.0,4.0,99,0.00,,,0.03,120,Wunderground v.1.15,2013-01-12 16:08:00,
2013-01-12 11:13:00,62.8,62.5,30.16,ESE,109,0.0,0.0,99,0.00,,,0.03,125,Wunderground v.1.15,2013-01-12 16:13:00,
2013-01-12 11:18:00,62.9,62.6,30.15,ESE,109,0.0,0.0,99,0.00,,,0.03,127,Wunderground v.1.15,2013-01-12 16:18:00,
2013-01-12 11:23:00,63.1,62.8,30.15,ESE,107,0.0,2.0,99,0.00,,,0.03,178,Wunderground v.1.15,2013-01-12 16:23:00,
2013-01-12 11:28:00,63.2,62.9,30.15,ESE,105,0.0,5.0,99,0.00,,,0.03,200,Wunderground v.1.15,2013-01-12 16:28:00,
2013-01-12 11:33:00,63.5,63.2,30.15,ESE,105,1.0,1.0,99,0.00,,,0.03,185,Wunderground v.1.15,2013-01-12 16:33:00,
2013-01-12 11:38:00,63.6,63.3,30.15,East,100,0.0,2.0,99,0.00,,,0.03,139,Wunderground v.1.15,2013-01-12 16:38:00,
2013-01-12 11:43:00,63.7,63.4,30.14,East,99,0.0,2.0,99,0.00,,,0.03,141,Wunderground v.1.15,2013-01-12 16:43:00,
2013-01-12 11:48:00,63.9,63.6,30.14,East,99,0.0,2.0,99,0.00,,,0.03,132,Wunderground v.1.15,2013-01-12 16:48:00,
2013-01-12 11:53:00,64.0,63.7,30.14,East,99,0.0,1.0,99,0.00,,,0.03,97,Wunderground v.1.15,2013-01-12 16:53:00,
2013-01-12 11:58:00,64.0,63.7,30.13,East,99,0.0,2.0,99,0.00,,,0.03,146,Wunderground v.1.15,2013-01-12 16:58:00,
2013-01-12 12:03:00,64.1,63.8,30.13,East,99,0.0,1.0,99,0.00,,,0.03,315,Wunderground v.1.15,2013-01-12 17:03:00,
2013-01-12 12:08:00,64.4,64.1,30.13,SSE,151,4.0,4.0,99,0.00,,,0.03,413,Wunderground v.1.15,2013-01-12 17:08:00,
2013-01-12 12:13:00,64.7,64.4,30.13,SE,130,2.0,5.0,99,0.00,,,0.03,438,Wunderground v.1.15,2013-01-12 17:13:00,
2013-01-12 12:18:00,65.3,65.0,30.12,ESE,104,1.0,6.0,99,0.00,,,0.03,791,Wunderground v.1.15,2013-01-12 17:18:00,
2013-01-12 12:23:00,65.7,65.4,30.12,ESE,121,0.0,7.0,99,0.00,,,0.03,329,Wunderground v.1.15,2013-01-12 17:23:00,
2013-01-12 12:28:00,66.1,65.5,30.11,ESE,104,0.0,7.0,98,0.00,,,0.03,366,Wunderground v.1.15,2013-01-12 17:28:00,
2013-01-12 12:33:00,66.5,65.6,30.11,SE,146,1.0,7.0,97,0.00,,,0.03,315,Wunderground v.1.15,2013-01-12 17:33:00,
2013-01-12 12:38:00,66.8,65.3,30.11,SSE,157,0.0,7.0,95,0.00,,,0.03,304,Wunderground v.1.15,2013-01-12 17:38:00,
2013-01-12 12:44:00,67.2,64.8,30.11,SSW,201,0.0,8.0,92,0.00,,,0.03,292,Wunderground v.1.15,2013-01-12 17:44:00,
2013-01-12 12:49:00,67.4,64.0,30.10,SSE,160,1.0,8.0,89,0.00,,,0.03,265,Wunderground v.1.15,2013-01-12 17:49:00,
2013-01-12 12:54:00,67.7,63.7,30.10,SSE,161,0.0,5.0,87,0.00,,,0.03,241,Wunderground v.1.15,2013-01-12 17:54:00,
2013-01-12 12:59:00,68.0,63.7,30.10,SSE,162,0.0,5.0,86,0.00,,,0.03,241,Wunderground v.1.15,2013-01-12 17:59:00,
2013-01-12 13:04:00,68.2,62.5,30.10,WNW,288,3.0,6.0,82,0.00,,,0.03,380,Wunderground v.1.15,2013-01-12 18:04:00,
2013-01-12 13:09:00,68.8,62.4,30.09,West,263,3.0,7.0,80,0.00,,,0.03,555,Wunderground v.1.15,2013-01-12 18:09:00,
2013-01-12 13:14:00,69.4,63.0,30.10,WSW,245,4.0,5.0,80,0.00,,,0.03,563,Wunderground v.1.15,2013-01-12 18:14:00,
2013-01-12 13:19:00,69.9,62.4,30.09,NW,304,6.0,6.0,77,0.00,,,0.03,315,Wunderground v.1.15,2013-01-12 18:19:00,
2013-01-12 13:24:00,70.1,61.8,30.09,West,277,0.0,6.0,75,0.00,,,0.03,371,Wunderground v.1.15,2013-01-12 18:24:00,
2013-01-12 13:29:00,70.3,61.2,30.09,West,279,0.0,6.0,73,0.00,,,0.03,271,Wunderground v.1.15,2013-01-12 18:29:00,
2013-01-12 13:34:00,70.5,61.4,30.09,SSW,200,3.0,6.0,73,0.00,,,0.03,304,Wunderground v.1.15,2013-01-12 18:34:00,
2013-01-12 13:39:00,70.7,60.8,30.09,WNW,302,2.0,6.0,71,0.00,,,0.03,288,Wunderground v.1.15,2013-01-12 18:39:00,
2013-01-12 13:44:00,70.9,61.4,30.09,WSW,250,2.0,7.0,72,0.00,,,0.03,468,Wunderground v.1.15,2013-01-12 18:44:00,
2013-01-12 13:49:00,71.3,60.6,30.09,SSW,210,4.0,9.0,69,0.00,,,0.03,471,Wunderground v.1.15,2013-01-12 18:49:00,
2013-01-12 13:54:00,71.6,60.9,30.09,SSW,196,0.0,7.0,69,0.00,,,0.03,468,Wunderground v.1.15,2013-01-12 18:54:00,
2013-01-12 13:59:00,71.7,60.6,30.08,WSW,237,2.0,7.0,68,0.00,,,0.03,308,Wunderground v.1.15,2013-01-12 18:59:00,
2013-01-12 14:04:00,71.6,60.1,30.08,SSW,199,0.0,6.0,67,0.00,,,0.03,220,Wunderground v.1.15,2013-01-12 19:04:00,
2013-01-12 14:09:00,71.4,60.3,30.08,SW,229,3.0,6.0,68,0.00,,,0.03,251,Wunderground v.1.15,2013-01-12 19:09:00,
2013-01-12 14:14:00,71.3,60.6,30.08,SSW,196,0.0,7.0,69,0.00,,,0.03,232,Wunderground v.1.15,2013-01-12 19:14:00,
2013-01-12 14:19:00,71.1,60.4,30.08,SW,214,0.0,2.0,69,0.00,,,0.03,229,Wunderground v.1.15,2013-01-12 19:19:00,
2013-01-12 14:24:00,71.0,60.3,30.08,South,189,0.0,5.0,69,0.00,,,0.03,220,Wunderground v.1.15,2013-01-12 19:24:00,
2013-01-12 14:29:00,71.0,59.9,30.08,SE,126,0.0,6.0,68,0.00,,,0.03,241,Wunderground v.1.15,2013-01-12 19:29:00,
2013-01-12 14:34:00,71.0,59.9,30.08,SW,215,0.0,2.0,68,0.00,,,0.03,308,Wunderground v.1.15,2013-01-12 19:34:00,
2013-01-12 14:39:00,71.0,60.3,30.08,South,178,2.0,2.0,69,0.00,,,0.03,253,Wunderground v.1.15,2013-01-12 19:39:00,
2013-01-12 14:44:00,71.2,60.1,30.08,SSW,212,3.0,5.0,68,0.00,,,0.03,274,Wunderground v.1.15,2013-01-12 19:44:00,
2013-01-12 14:50:00,71.3,60.6,30.08,West,259,2.0,2.0,69,0.00,,,0.03,236,Wunderground v.1.15,2013-01-12 19:50:00,
2013-01-12 14:55:00,71.4,59.9,30.08,SW,233,0.0,4.0,67,0.00,,,0.03,570,Wunderground v.1.15,2013-01-12 19:55:00,
2013-01-12 15:00:00,71.9,59.9,30.08,ESE,118,6.0,6.0,66,0.00,,,0.03,540,Wunderground v.1.15,2013-01-12 20:00:00,
2013-01-12 15:05:00,72.1,60.1,30.08,SE,146,0.0,9.0,66,0.00,,,0.03,390,Wunderground v.1.15,2013-01-12 20:05:00,
2013-01-12 15:10:00,72.5,60.1,30.08,South,173,2.0,2.0,65,0.00,,,0.03,302,Wunderground v.1.15,2013-01-12 20:10:00,
2013-01-12 15:15:00,72.6,61.0,30.08,South,188,4.0,8.0,67,0.00,,,0.03,392,Wunderground v.1.15,2013-01-12 20:15:00,
2013-01-12 15:20:00,72.4,60.8,30.08,SE,140,7.0,8.0,67,0.00,,,0.03,439,Wunderground v.1.15,2013-01-12 20:20:00,
2013-01-12 15:25:00,72.1,61.0,30.08,SE,127,7.0,11.0,68,0.00,,,0.03,464,Wunderground v.1.15,2013-01-12 20:25:00,
2013-01-12 15:30:00,71.7,60.2,30.08,SE,124,5.0,6.0,67,0.00,,,0.03,352,Wunderground v.1.15,2013-01-12 20:30:00,
2013-01-12 15:35:00,71.6,60.5,30.08,SE,132,6.0,8.0,68,0.00,,,0.03,155,Wunderground v.1.15,2013-01-12 20:35:00,
2013-01-12 15:40:00,71.3,60.2,30.07,ESE,121,5.0,6.0,68,0.00,,,0.04,148,Wunderground v.1.15,2013-01-12 20:40:00,
2013-01-12 15:45:00,70.9,59.8,30.08,SE,143,0.0,8.0,68,0.00,,,0.04,202,Wunderground v.1.15,2013-01-12 20:45:00,
2013-01-12 15:50:00,70.9,59.8,30.08,SSE,155,0.0,3.0,68,0.00,,,0.04,230,Wunderground v.1.15,2013-01-12 20:50:00,
2013-01-12 15:55:00,70.8,59.7,30.08,ESE,118,11.0,13.0,68,0.00,,,0.04,264,Wunderground v.1.15,2013-01-12 20:55:00,
2013-01-12 16:00:00,70.5,59.8,30.08,SSE,168,6.0,6.0,69,0.00,,,0.04,234,Wunderground v.1.15,2013-01-12 21:00:00,
2013-01-12 16:05:00,70.3,59.6,30.08,SSE,155,5.0,12.0,69,0.00,,,0.04,223,Wunderground v.1.15,2013-01-12 21:05:00,
2013-01-12 16:10:00,70.3,60.1,30.08,ESE,120,7.0,7.0,70,0.00,,,0.04,206,Wunderground v.1.15,2013-01-12 21:10:00,
2013-01-12 16:15:00,70.1,59.9,30.08,ESE,116,0.0,8.0,70,0.00,,,0.04,137,Wunderground v.1.15,2013-01-12 21:15:00,
2013-01-12 16:20:00,70.0,59.4,30.07,SSE,165,7.0,7.0,69,0.00,,,0.04,90,Wunderground v.1.15,2013-01-12 21:20:00,
2013-01-12 16:25:00,69.6,59.4,30.07,SSE,147,2.0,8.0,70,0.00,,,0.04,104,Wunderground v.1.15,2013-01-12 21:25:00,
2013-01-12 16:30:00,69.4,59.2,30.07,SSE,161,6.0,8.0,70,0.00,,,0.04,81,Wunderground v.1.15,2013-01-12 21:30:00,
2013-01-12 16:35:00,69.1,59.3,30.07,ESE,111,6.0,9.0,71,0.00,,,0.04,79,Wunderground v.1.15,2013-01-12 21:35:00,
2013-01-12 16:40:00,68.7,58.9,30.07,ESE,107,0.0,4.0,71,0.00,,,0.04,72,Wunderground v.1.15,2013-01-12 21:40:00,
2013-01-12 16:45:00,68.4,58.6,30.07,ESE,107,8.0,8.0,71,0.00,,,0.04,76,Wunderground v.1.15,2013-01-12 21:45:00,
2013-01-12 16:50:00,68.1,58.7,30.07,SSE,149,1.0,4.0,72,0.00,,,0.04,79,Wunderground v.1.15,2013-01-12 21:50:00,
2013-01-12 16:55:00,68.0,58.6,30.07,SE,130,2.0,8.0,72,0.00,,,0.04,74,Wunderground v.1.15,2013-01-12 21:55:00,
2013-01-12 17:00:00,67.9,58.5,30.08,SSE,167,0.0,2.0,72,0.00,,,0.04,67,Wunderground v.1.15,2013-01-12 22:00:00,
2013-01-12 17:05:00,67.7,58.7,30.08,SSE,153,1.0,5.0,73,0.00,,,0.04,53,Wunderground v.1.15,2013-01-12 22:05:00,
2013-01-12 17:10:00,67.6,58.6,30.08,ESE,121,2.0,2.0,73,0.00,,,0.04,39,Wunderground v.1.15,2013-01-12 22:10:00,
2013-01-12 17:15:00,67.4,58.4,30.08,ESE,107,0.0,2.0,73,0.00,,,0.04,28,Wunderground v.1.15,2013-01-12 22:15:00,
2013-01-12 17:20:00,67.2,58.2,30.09,SSE,163,0.0,4.0,73,0.00,,,0.04,23,Wunderground v.1.15,2013-01-12 22:20:00,
2013-01-12 17:25:00,67.1,58.5,30.08,SSE,164,0.0,4.0,74,0.00,,,0.04,23,Wunderground v.1.15,2013-01-12 22:25:00,
2013-01-12 17:31:00,66.8,58.6,30.08,ESE,117,1.0,4.0,75,0.00,,,0.04,16,Wunderground v.1.15,2013-01-12 22:31:00,
2013-01-12 17:36:00,66.4,58.2,30.07,ESE,107,0.0,4.0,75,0.00,,,0.04,11,Wunderground v.1.15,2013-01-12 22:36:00,
2013-01-12 17:41:00,66.2,58.4,30.07,East,84,0.0,2.0,76,0.00,,,0.04,5,Wunderground v.1.15,2013-01-12 22:41:00,
2013-01-12 17:46:00,65.9,58.1,30.07,ESE,114,1.0,6.0,76,0.00,,,0.04,0,Wunderground v.1.15,2013-01-12 22:46:00,
2013-01-12 17:51:00,65.7,58.3,30.07,SE,136,0.0,1.0,77,0.00,,,0.04,0,Wunderground v.1.15,2013-01-12 22:51:00,
2013-01-12 17:56:00,65.4,58.0,30.08,SSE,153,0.0,2.0,77,0.00,,,0.04,0,Wunderground v.1.15,2013-01-12 22:56:00,
2013-01-12 18:01:00,65.2,58.2,30.08,ESE,106,0.0,0.0,78,0.00,,,0.04,0,Wunderground v.1.15,2013-01-12 23:01:00,
2013-01-12 18:06:00,64.9,57.9,30.08,SE,127,0.0,4.0,78,0.00,,,0.04,0,Wunderground v.1.15,2013-01-12 23:06:00,
2013-01-12 18:11:00,64.6,57.9,30.08,SE,142,0.0,5.0,79,0.00,,,0.04,0,Wunderground v.1.15,2013-01-12 23:11:00,
2013-01-12 18:16:00,64.2,57.9,30.08,East,96,0.0,5.0,80,0.00,,,0.04,0,Wunderground v.1.15,2013-01-12 23:16:00,
2013-01-12 18:21:00,64.0,57.7,30.08,East,96,0.0,0.0,80,0.00,,,0.04,0,Wunderground v.1.15,2013-01-12 23:21:00,
2013-01-12 18:26:00,63.7,57.8,30.08,SSE,148,0.0,4.0,81,0.00,,,0.04,0,Wunderground v.1.15,2013-01-12 23:26:00,
2013-01-12 18:31:00,63.4,57.5,30.08,ESE,118,0.0,1.0,81,0.00,,,0.04,0,Wunderground v.1.15,2013-01-12 23:31:00,
2013-01-12 18:36:00,63.1,57.2,30.08,ESE,118,0.0,1.0,81,0.00,,,0.04,0,Wunderground v.1.15,2013-01-12 23:36:00,
2013-01-12 18:41:00,62.7,57.1,30.08,ESE,118,0.0,1.0,82,0.00,,,0.04,0,Wunderground v.1.15,2013-01-12 23:41:00,
2013-01-12 18:46:00,62.1,56.9,30.08,SSE,148,0.0,2.0,83,0.00,,,0.04,0,Wunderground v.1.15,2013-01-12 23:46:00,
2013-01-12 18:51:00,61.8,56.9,30.08,ESE,123,1.0,1.0,84,0.00,,,0.04,0,Wunderground v.1.15,2013-01-12 23:51:00,
2013-01-12 18:56:00,61.2,56.7,30.08,ESE,120,0.0,4.0,85,0.00,,,0.04,0,Wunderground v.1.15,2013-01-12 23:56:00,
2013-01-12 19:01:00,60.3,56.1,30.08,ESE,120,0.0,1.0,86,0.00,,,0.04,0,Wunderground v.1.15,2013-01-13 00:01:00,
2013-01-12 19:06:00,59.5,55.6,30.08,ESE,113,0.0,2.0,87,0.00,,,0.04,0,Wunderground v.1.15,2013-01-13 00:06:00,
2013-01-12 19:11:00,58.9,55.7,30.08,ESE,113,1.0,1.0,89,0.00,,,0.04,0,Wunderground v.1.15,2013-01-13 00:11:00,
2013-01-12 19:16:00,58.5,55.6,30.08,ESE,113,0.0,1.0,90,0.00,,,0.04,0,Wunderground v.1.15,2013-01-13 00:16:00,
2013-01-12 19:21:00,58.4,55.8,30.08,ESE,113,0.0,0.0,91,0.00,,,0.04,0,Wunderground v.1.15,2013-01-13 00:21:00,
2013-01-12 19:26:00,58.2,55.9,30.08,ESE,113,0.0,1.0,92,0.00,,,0.04,0,Wunderground v.1.15,2013-01-13 00:26:00,
2013-01-12 19:31:00,58.1,55.8,30.08,ESE,113,1.0,1.0,92,0.00,,,0.04,0,Wunderground v.1.15,2013-01-13 00:31:00,
2013-01-12 19:36:00,57.8,55.5,30.08,ESE,113,1.0,1.0,92,0.00,,,0.04,0,Wunderground v.1.15,2013-01-13 00:36:00,
2013-01-12 19:41:00,57.9,55.9,30.08,ESE,113,0.0,0.0,93,0.00,,,0.04,0,Wunderground v.1.15,2013-01-13 00:41:00,
2013-01-12 19:46:00,58.0,56.0,30.08,ESE,113,0.0,1.0,93,0.00,,,0.04,0,Wunderground v.1.15,2013-01-13 00:46:00,
2013-01-12 19:51:00,58.0,56.0,30.08,ESE,113,0.0,1.0,93,0.00,,,0.04,0,Wunderground v.1.15,2013-01-13 00:51:00,
2013-01-12 19:56:00,58.0,56.0,30.08,SE,138,1.0,4.0,93,0.00,,,0.04,0,Wunderground v.1.15,2013-01-13 00:56:00,
2013-01-12 20:01:00,57.8,55.8,30.07,ESE,117,0.0,0.0,93,0.00,,,0.04,0,Wunderground v.1.15,2013-01-13 01:01:00,
2013-01-12 20:06:00,57.7,55.7,30.07,ESE,117,0.0,1.0,93,0.00,,,0.04,0,Wunderground v.1.15,2013-01-13 01:06:00,
2013-01-12 20:11:00,57.6,55.6,30.07,ESE,116,0.0,0.0,93,0.00,,,0.04,0,Wunderground v.1.15,2013-01-13 01:11:00,
2013-01-12 20:16:00,57.4,55.7,30.07,ESE,116,0.0,1.0,94,0.00,,,0.04,0,Wunderground v.1.15,2013-01-13 01:16:00,
2013-01-12 20:22:00,57.2,55.5,30.08,ESE,116,0.0,1.0,94,0.00,,,0.04,0,Wunderground v.1.15,2013-01-13 01:22:00,
2013-01-12 20:27:00,57.0,55.0,30.07,ESE,116,0.0,1.0,93,0.00,,,0.04,0,Wunderground v.1.15,2013-01-13 01:27:00,
2013-01-12 20:32:00,57.0,55.3,30.08,ESE,116,0.0,1.0,94,0.00,,,0.04,0,Wunderground v.1.15,2013-01-13 01:32:00,
2013-01-12 20:37:00,57.0,55.3,30.08,ESE,116,0.0,1.0,94,0.00,,,0.04,0,Wunderground v.1.15,2013-01-13 01:37:00,
2013-01-12 20:42:00,56.9,55.2,30.08,ESE,116,0.0,1.0,94,0.00,,,0.04,0,Wunderground v.1.15,2013-01-13 01:42:00,
2013-01-12 20:47:00,56.9,55.5,30.08,ESE,116,0.0,1.0,95,0.00,,,0.04,0,Wunderground v.1.15,2013-01-13 01:47:00,
2013-01-12 20:52:00,56.9,55.5,30.07,ESE,116,0.0,2.0,95,0.00,,,0.04,0,Wunderground v.1.15,2013-01-13 01:52:00,
2013-01-12 20:57:00,57.5,56.1,30.07,ESE,117,0.0,2.0,95,0.00,,,0.04,0,Wunderground v.1.15,2013-01-13 01:57:00,
2013-01-12 21:02:00,57.6,56.2,30.08,ESE,115,0.0,0.0,95,0.00,,,0.04,0,Wunderground v.1.15,2013-01-13 02:02:00,
2013-01-12 21:07:00,57.6,56.2,30.07,South,181,0.0,1.0,95,0.00,,,0.04,0,Wunderground v.1.15,2013-01-13 02:07:00,
2013-01-12 21:12:00,57.6,56.2,30.08,South,181,0.0,0.0,95,0.00,,,0.04,0,Wunderground v.1.15,2013-01-13 02:12:00,
2013-01-12 21:17:00,57.6,56.2,30.07,South,181,0.0,1.0,95,0.00,,,0.04,0,Wunderground v.1.15,2013-01-13 02:17:00,
2013-01-12 21:22:00,57.7,56.3,30.08,SSE,157,0.0,0.0,95,0.00,,,0.04,0,Wunderground v.1.15,2013-01-13 02:22:00,
2013-01-12 21:27:00,57.8,56.4,30.08,SSE,157,0.0,1.0,95,0.00,,,0.04,0,Wunderground v.1.15,2013-01-13 02:27:00,
2013-01-12 21:32:00,57.8,56.4,30.07,SSE,157,0.0,0.0,95,0.00,,,0.04,0,Wunderground v.1.15,2013-01-13 02:32:00,
2013-01-12 21:37:00,57.8,56.4,30.07,SSE,157,0.0,0.0,95,0.00,,,0.04,0,Wunderground v.1.15,2013-01-13 02:37:00,
2013-01-12 21:42:00,58.0,56.6,30.07,SSE,157,0.0,1.0,95,0.00,,,0.04,0,Wunderground v.1.15,2013-01-13 02:42:00,
2013-01-12 21:47:00,57.9,56.5,30.07,SSE,157,0.0,1.0,95,0.00,,,0.04,0,Wunderground v.1.15,2013-01-13 02:47:00,
2013-01-12 21:52:00,58.0,56.6,30.07,SE,136,0.0,2.0,95,0.00,,,0.04,0,Wunderground v.1.15,2013-01-13 02:52:00,
2013-01-12 21:58:00,57.8,56.4,30.06,SE,136,0.0,2.0,95,0.00,,,0.04,0,Wunderground v.1.15,2013-01-13 02:58:00,
2013-01-12 22:03:00,57.7,56.3,30.06,ESE,114,0.0,1.0,95,0.00,,,0.04,0,Wunderground v.1.15,2013-01-13 03:03:00,
2013-01-12 22:08:00,57.8,56.4,30.06,ESE,114,0.0,1.0,95,0.00,,,0.04,0,Wunderground v.1.15,2013-01-13 03:08:00,
2013-01-12 22:13:00,57.8,56.4,30.06,ESE,114,0.0,0.0,95,0.00,,,0.04,0,Wunderground v.1.15,2013-01-13 03:13:00,
2013-01-12 22:18:00,57.9,56.5,30.07,ESE,114,0.0,1.0,95,0.00,,,0.04,0,Wunderground v.1.15,2013-01-13 03:18:00,
2013-01-12 22:23:00,57.8,56.7,30.07,ESE,114,0.0,0.0,96,0.00,,,0.04,0,Wunderground v.1.15,2013-01-13 03:23:00,
2013-01-12 22:28:00,57.8,56.7,30.07,ESE,114,0.0,1.0,96,0.00,,,0.04,0,Wunderground v.1.15,2013-01-13 03:28:00,
2013-01-12 22:33:00,57.8,56.7,30.07,ESE,114,0.0,1.0,96,0.00,,,0.04,0,Wunderground v.1.15,2013-01-13 03:33:00,
2013-01-12 22:38:00,57.8,56.7,30.07,ESE,114,0.0,1.0,96,0.00,,,0.04,0,Wunderground v.1.15,2013-01-13 03:38:00,
2013-01-12 22:43:00,57.8,56.7,30.07,ESE,114,0.0,0.0,96,0.00,,,0.04,0,Wunderground v.1.15,2013-01-13 03:43:00,
2013-01-12 22:48:00,57.7,56.6,30.07,East,98,0.0,2.0,96,0.00,,,0.04,0,Wunderground v.1.15,2013-01-13 03:48:00,
2013-01-12 22:53:00,57.7,56.6,30.06,East,79,0.0,3.0,96,0.00,,,0.04,0,Wunderground v.1.15,2013-01-13 03:53:00,
2013-01-12 22:58:00,58.0,56.9,30.07,East,79,0.0,3.0,96,0.00,,,0.04,0,Wunderground v.1.15,2013-01-13 03:58:00,
2013-01-12 23:03:00,58.2,57.1,30.07,East,96,0.0,2.0,96,0.00,,,0.04,0,Wunderground v.1.15,2013-01-13 04:03:00,
2013-01-12 23:08:00,58.5,57.4,30.07,ENE,69,0.0,2.0,96,0.00,,,0.04,0,Wunderground v.1.15,2013-01-13 04:08:00,
2013-01-12 23:13:00,58.4,57.0,30.07,ENE,69,0.0,0.0,95,0.00,,,0.04,0,Wunderground v.1.15,2013-01-13 04:13:00,
2013-01-12 23:18:00,58.3,56.6,30.07,ENE,69,0.0,2.0,94,0.00,,,0.04,0,Wunderground v.1.15,2013-01-13 04:18:00,
2013-01-12 23:23:00,58.0,56.3,30.07,ENE,69,0.0,1.0,94,0.00,,,0.04,0,Wunderground v.1.15,2013-01-13 04:23:00,
2013-01-12 23:28:00,57.9,56.2,30.07,ENE,69,0.0,1.0,94,0.00,,,0.04,0,Wunderground v.1.15,2013-01-13 04:28:00,
2013-01-12 23:33:00,57.7,56.0,30.07,ENE,69,0.0,1.0,94,0.00,,,0.04,0,Wunderground v.1.15,2013-01-13 04:33:00,
2013-01-12 23:38:00,57.5,55.8,30.07,ENE,69,0.0,1.0,94,0.00,,,0.04,0,Wunderground v.1.15,2013-01-13 04:38:00,
2013-01-12 23:44:00,57.3,55.6,30.07,ENE,69,0.0,0.0,94,0.00,,,0.04,0,Wunderground v.1.15,2013-01-13 04:44:00,
2013-01-12 23:49:00,57.1,55.7,30.07,ENE,69,0.0,1.0,95,0.00,,,0.04,0,Wunderground v.1.15,2013-01-13 04:49:00,
2013-01-12 23:54:00,56.9,55.5,30.07,ENE,71,0.0,1.0,95,0.00,,,0.04,0,Wunderground v.1.15,2013-01-13 04:54:00,
2013-01-12 23:59:00,56.7,55.3,30.06,ENE,72,0.0,2.0,95,0.00,,,0.04,0,Wunderground v.1.15,2013-01-13 04:59:00,